星链-36330(STARLINK-36330)

导读

STARLINK-36330是由美国于2026年2月11日发射的星链系列卫星。星链计划是SpaceX打造的低轨卫星互联网项目,旨在为全球提供高速低延迟宽带服务。该卫星延续星链设计,融入技术优化,将进一步拓展星链星座覆盖范围,增强全球网络服务能力,推动太空互联网基础设施建设。

Basic Information
目录编号:
67737
目录名称:
STARLINK-36330
国际标识:
2026-026S
轨道中心:
EARTH
卫星名称:
星链-36330
卫星全名:
星链-36330(STARLINK-36330)
卫星状态:
在轨 (已飞行205 天)
发射日期:
2026-02-11 UTC
国别 :
美国 (US)
星等 :
--
Orbit Information
数据来源 国际轨道数据
星历时间: 2026-09-04T00:07:52+0800
1天前
查看轨道信息
半长轴: 6843.702km
偏心率: 0.0001406
轨道倾角: 97.286°
近地点辐角 144.561°
升交点赤经 298.771°
平近点角 215.573°
近地点: 464.602km
远地点: 466.528km
周期: 93.907分钟
每日圈数: 15.334379
Detailed Information
固有亮度:
5
最大亮度:
2.5
卫星平台:
Starlink V1.0
覆盖范围:
全球
运营商:
太空探索技术公司
运营商所在国:
美国
制造商(研发单位):
太空探索技术公司
制造商所在国:
美国
使用方式:
暂无
Satellite Introduction
Starlink 计划是 SpaceX 推出的全球卫星互联网项目,通过发射低轨道卫星,为全球尤其是偏远地区提供高速、低延迟的互联网服务。自 2019 年起,Starlink 已部署数千颗卫星,旨在缩小全球数字鸿沟,推动互联网普及。该项目还为军事、航空等行业提供通信支持,带来广泛经济效益。
2D Orbit Map
3D Orbit Map
Orbit Altitude Analysis Chart
Orbit Inclination Analysis Chart
Orbit Comprehensive Analysis Chart
View Comprehensive Chart
Conjunction Data List
Event ID Objects TCA Miss Dist (km) Collision Risk Probability Collision Risk Index (CRI) Action
CDM_260905-080105-872506-773721
2026-09-05T
08:01:28+0000
2.587 km
极远距离
1.650732E-6 低风险 0.39
CDM_260905-084805-872506-773721
2026-09-05T
08:48:26+0000
2.693 km
极远距离
1.547619E-6 低风险 0.39
CDM_260905-042205-392606-773721
2026-09-05T
04:22:58+0000
2.687 km
极远距离
1.414422E-6 低风险 0.38
CDM_260904-113205-327406-773721
2026-09-04T
11:32:15+0000
2.889 km
极远距离
1.377785E-6 低风险 0.38
CDM_260827-184205-476406-773721
2026-08-27T
18:42:07+0000
2.640 km
极远距离
1.170258E-6 低风险 0.36